GW4420 Weather Reports


time (UTC)temp
C
wind
direction
speed
KPH
gust
KPH
rain 1hr
cm
rain 24hr
cm
rain mn
cm
humidity
%
barometer
mb
20260905014713 30 78 6.4 11.3 0.00 0.15 0.15 79 998.1
20260905014209 30 133 12.9 17.7 0.00 0.15 0.15 78 998.4
20260905013705 30 64 6.4 12.9 0.00 0.15 0.15 80 998.5
20260905013200 30 159 12.9 24.1 0.00 0.15 0.15 80 998.5
20260905012655 29 153 6.4 14.5 0.00 0.15 0.15 82 998.6
20260905012151 29 144 11.3 16.1 0.00 0.15 0.15 81 998.7
20260905011648 29 102 12.9 20.9 0.00 0.15 0.15 80 998.9
20260905011143 29 159 11.3 17.7 0.00 0.15 0.15 81 999.0
20260905010638 29 158 6.4 14.5 0.00 0.15 0.15 81 999.0
20260905010134 29 121 4.8 20.9 0.00 0.15 0.15 82 999.1
20260905005630 29 160 8.0 16.1 0.00 0.15 0.15 82 999.1
20260905005125 29 139 11.3 14.5 0.00 0.15 0.15 82 999.2
20260905004625 29 118 1.6 14.5 0.00 0.15 0.15 83 999.2
20260905004120 28 147 9.7 16.1 0.00 0.15 0.15 83 999.2
20260905003616 29 233 9.7 14.5 0.00 0.15 0.15 83 999.1
20260905003111 28 165 9.7 14.5 0.00 0.15 0.15 83 999.2
20260905002606 29 110 6.4 14.5 0.00 0.15 0.15 83 999.4
20260905002101 29 171 12.9 16.1 0.00 0.15 0.15 82 999.5
20260905001556 28 131 8.0 14.5 0.00 0.15 0.15 84 999.6
20260905001050 28 150 11.3 17.7 0.00 0.15 0.15 85 999.6
20260905000545 28 163 12.9 16.1 0.00 0.15 0.15 85 999.8
20260905000042 29 156 4.8 11.3 0.00 0.15 0.15 85 999.7
20260904235536 28 93 8.0 14.5 0.00 0.15 0.15 87 999.8
20260904235036 28 137 6.4 12.9 0.00 0.15 0.15 87 999.6
20260904234536 28 109 4.8 12.9 0.00 0.15 0.15 89 999.7
20260904234032 28 134 8.0 14.5 0.00 0.15 0.15 89 999.6
20260904233527 27 179 4.8 11.3 0.00 0.15 0.15 90 999.7
20260904233023 27 158 3.2 9.7 0.00 0.15 0.15 90 999.6
20260904232520 27 121 8.0 14.5 0.00 0.15 0.15 90 999.8
20260904232016 27 60 6.4 17.7 0.00 0.15 0.15 88 999.9
20260904231512 28 130 9.7 22.5 0.00 0.15 0.15 88 999.7
20260904231006 28 145 6.4 14.5 0.00 0.15 0.15 88 999.8
20260904230505 28 199 9.7 16.1 0.00 0.15 0.15 88 999.8
20260904230001 28 153 4.8 16.1 0.00 0.15 0.15 88 999.7
20260904225459 28 177 11.3 20.9 0.00 0.15 0.15 88 999.6
20260904224958 28 185 4.8 17.7 0.00 0.15 0.15 88 999.6
20260904224454 28 112 8.0 25.7 0.00 0.15 0.15 88 999.6
20260904223953 28 143 14.5 24.1 0.00 0.15 0.15 89 999.6
20260904223453 28 171 9.7 20.9 0.00 0.15 0.15 89 999.3
20260904222948 28 142 12.9 17.7 0.00 0.15 0.15 89 999.3
20260904222444 27 129 14.5 24.1 0.00 0.15 0.15 90 999.6
20260904221938 27 118 14.5 17.7 0.00 0.15 0.15 90 999.7
20260904221433 27 142 14.5 22.5 0.00 0.15 0.15 91 999.6
20260904220929 27 87 6.4 11.3 0.00 0.15 0.15 92 999.5
20260904220428 27 185 4.8 6.4 0.00 0.15 0.15 92 999.6
20260904215923 27 99 3.2 9.7 0.00 0.15 0.15 92 999.8
20260904215418 27 125 6.4 20.9 0.00 0.15 0.15 93 999.9
20260904214914 27 160 6.4 12.9 0.00 0.15 0.15 93 999.9
20260904214410 27 157 4.8 12.9 0.00 0.15 0.15 93 999.7
20260904213908 27 142 8.0 14.5 0.00 0.15 0.15 93 999.5
20260904213402 27 79 6.4 12.9 0.00 0.15 0.15 93 999.6
20260904212859 27 152 12.9 20.9 0.00 0.15 0.15 93 999.6
20260904212353 27 122 3.2 12.9 0.00 0.15 0.15 93 999.4
20260904211849 27 124 4.8 16.1 0.00 0.15 0.15 93 999.5
20260904211343 27 118 6.4 14.5 0.00 0.15 0.15 93 999.5
20260904210837 27 111 0.0 11.3 0.00 0.15 0.15 93 999.4
20260904210332 27 162 6.4 11.3 0.00 0.15 0.15 94 999.2
20260904205829 27 112 8.0 17.7 0.00 0.15 0.15 94 999.4
20260904205324 27 158 6.4 11.3 0.18 0.15 0.15 94 999.2
20260904204821 27 64 8.0 12.9 0.00 0.13 0.13 93 999.1
20260904204316 27 126 9.7 16.1 0.00 0.13 0.13 93 999.3
20260904203813 27 157 6.4 12.9 0.00 0.13 0.13 93 999.4
20260904203309 27 89 4.8 11.3 0.00 0.13 0.13 93 999.3
20260904202804 27 160 14.5 17.7 0.00 0.13 0.13 93 999.5
20260904202300 27 130 3.2 16.1 0.00 0.13 0.13 93 999.3
20260904201755 27 150 3.2 12.9 0.00 0.13 0.13 93 999.0
20260904201255 27 105 3.2 9.7 0.00 0.13 0.13 93 999.2
20260904200750 27 278 12.9 22.5 0.00 0.13 0.13 93 999.1
20260904200244 27 104 1.6 6.4 0.13 0.13 0.13 93 999.0
20260904195743 27 146 6.4 17.7 0.30 0.13 0.13 92 999.2
20260904195242 27 148 6.4 16.1 0.66 0.10 0.10 91 999.3
20260904194737 28 172 6.4 20.9 0.36 0.05 0.05 90 999.3
20260904194236 28 84 6.4 20.9 0.00 0.00 0.00 90 999.4
20260904193731 28 95 12.9 16.1 0.00 0.00 0.00 90 999.3
20260904193227 28 157 14.5 22.5 0.00 0.00 0.00 89 999.4
20260904192722 28 106 19.3 27.4 0.00 0.00 0.00 88 999.6
20260904192218 28 175 9.7 11.3 0.00 0.00 0.00 88 999.6
20260904191714 28 121 14.5 17.7 0.00 0.00 0.00 88 999.6
20260904191210 28 169 8.0 20.9 0.00 0.00 0.00 88 999.6
20260904190707 28 172 6.4 12.9 0.00 0.00 0.00 88 999.7
20260904190202 28 165 3.2 17.7 0.00 0.00 0.00 87 999.9
20260904185659 28 155 6.4 11.3 0.00 0.00 0.00 87 999.8
20260904185153 28 136 8.0 22.5 0.00 0.00 0.00 87 999.9
20260904184651 28 152 11.3 14.5 0.00 0.00 0.00 88 999.9
20260904184142 28 134 11.3 16.1 0.00 0.00 0.00 88 1000.1
20260904183637 28 72 9.7 22.5 0.00 0.00 0.00 88 1000.1
20260904183131 28 144 8.0 16.1 0.00 0.00 0.00 89 1000.2
20260904182627 28 136 9.7 16.1 0.00 0.00 0.00 89 1000.1
20260904182122 28 126 9.7 12.9 0.00 0.00 0.00 88 1000.2
20260904181618 28 138 9.7 16.1 0.00 0.00 0.00 88 1000.2
20260904181117 28 129 3.2 14.5 0.00 0.00 0.00 88 1000.2
20260904180613 28 119 6.4 16.1 0.00 0.00 0.00 88 1000.3
20260904180108 28 130 12.9 16.1 0.00 0.00 0.00 88 1000.4
20260904175602 28 133 11.3 14.5 0.00 0.00 0.00 88 1000.3
20260904175100 28 130 6.4 20.9 0.00 0.00 0.00 88 1000.2
20260904174555 28 180 9.7 20.9 0.00 0.00 0.00 88 1000.0
20260904174052 28 75 4.8 16.1 0.00 0.00 0.00 89 1000.4
20260904173552 28 158 9.7 17.7 0.00 0.00 0.00 89 1000.4
20260904173047 28 130 6.4 17.7 0.00 0.00 0.00 89 1000.5
20260904172543 28 144 12.9 20.9 0.00 0.00 0.00 89 1000.4
20260904172042 28 186 9.7 12.9 0.00 0.00 0.00 89 1000.3
20260904171538 28 152 1.6 6.4 0.00 0.00 0.00 89 1000.7
20260904171033 28 134 3.2 16.1 0.00 0.00 0.00 89 1000.5
20260904170528 28 121 6.4 16.1 0.00 0.00 0.00 89 1000.6
20260904170025 28 210 6.4 16.1 0.00 0.00 0.00 89 1000.7
20260904165523 28 133 4.8 16.1 0.00 0.00 0.00 89 1000.9
20260904165022 28 157 12.9 16.1 0.00 0.00 0.00 89 1000.9
20260904164518 28 158 8.0 11.3 0.00 0.00 0.00 89 1001.1
20260904164014 28 14 1.6 16.1 0.00 0.00 0.00 89 1001.3
20260904163514 28 188 6.4 12.9 0.00 0.00 0.00 90 1001.1
20260904163009 28 140 4.8 14.5 0.00 0.00 0.00 90 1001.3
20260904162503 28 132 3.2 11.3 0.00 0.00 0.00 90 1001.4
20260904161959 28 158 6.4 17.7 0.00 0.00 0.00 90 1001.6
20260904161453 28 200 3.2 6.4 0.00 0.00 0.00 90 1001.4
20260904160948 28 197 4.8 11.3 0.00 0.00 0.00 90 1001.7
20260904160443 28 175 9.7 20.9 0.00 0.00 0.00 90 1001.7
20260904155938 28 120 1.6 14.5 0.00 0.00 0.00 90 1001.7
20260904155433 28 128 4.8 9.7 0.00 0.00 0.00 90 1001.8
20260904154931 28 100 1.6 9.7 0.00 0.00 0.00 90 1001.9
20260904154426 28 139 8.0 20.9 0.00 0.00 0.00 90 1002.0
20260904153921 28 233 4.8 14.5 0.00 0.00 0.00 89 1002.1
20260904153417 28 154 11.3 16.1 0.00 0.00 0.00 89 1002.0
20260904152913 28 128 6.4 14.5 0.00 0.00 0.00 89 1002.1
20260904152414 28 138 3.2 12.9 0.00 0.00 0.00 90 1002.2
20260904151913 28 128 6.4 16.1 0.00 0.00 0.00 90 1002.4
20260904151408 28 165 8.0 14.5 0.00 0.00 0.00 90 1002.4
20260904150903 28 146 8.0 16.1 0.00 0.00 0.00 90 1002.4
20260904150358 28 166 9.7 14.5 0.00 0.00 0.00 90 1002.4
20260904145856 28 135 6.4 11.3 0.00 0.79 0.79 90 1002.5
20260904145353 28 187 14.5 20.9 0.00 0.79 0.79 90 1002.4
20260904144848 28 184 4.8 12.9 0.00 0.79 0.79 90 1002.3
20260904144344 28 163 3.2 17.7 0.00 0.79 0.79 90 1002.5
20260904143839 28 140 1.6 11.3 0.00 0.79 0.79 90 1002.5
20260904143336 28 166 6.4 11.3 0.00 0.79 0.79 90 1002.5
20260904142831 28 121 8.0 14.5 0.00 0.79 0.79 90 1002.7
20260904142327 28 196 3.2 11.3 0.00 0.79 0.79 90 1002.5
20260904141821 28 144 6.4 22.5 0.00 0.79 0.79 90 1002.6
20260904141317 28 135 8.0 17.7 0.00 0.79 0.79 90 1002.6
20260904140813 28 144 4.8 12.9 0.00 0.79 0.79 90 1002.6
20260904140308 28 127 1.6 4.8 0.00 0.79 0.79 90 1002.7
20260904135807 28 131 4.8 4.8 0.00 0.79 0.79 90 1002.8
20260904135305 28 119 3.2 9.7 0.00 0.79 0.79 90 1002.8
20260904134758 28 154 3.2 11.3 0.00 0.79 0.79 90 1003.3
20260904134257 28 124 1.6 6.4 0.00 0.79 0.79 91 1003.0
20260904133752 28 118 8.0 12.9 0.00 0.79 0.79 91 1003.0
20260904133248 28 139 11.3 14.5 0.00 0.79 0.79 90 1003.1
20260904132747 28 123 8.0 16.1 0.00 0.79 0.79 90 1002.7
20260904132243 28 104 3.2 14.5 0.00 0.79 0.79 90 1003.1
20260904131742 28 127 6.4 11.3 0.00 0.79 0.79 90 1003.2
20260904131238 28 232 1.6 9.7 0.00 0.79 0.79 90 1003.0
20260904130732 28 66 9.7 20.9 0.00 0.79 0.79 89 1003.1
20260904130231 28 172 11.3 16.1 0.00 0.79 0.79 89 1003.1
20260904125728 28 115 9.7 22.5 0.00 0.79 0.79 89 1003.0
20260904125223 28 134 9.7 12.9 0.00 0.79 0.79 89 1003.0
20260904124717 28 155 6.4 9.7 0.00 0.79 0.79 89 1003.3
20260904124213 28 146 4.8 14.5 0.00 0.79 0.79 89 1003.2
20260904123709 28 149 4.8 16.1 0.00 0.79 0.79 89 1003.4
20260904123204 28 105 9.7 17.7 0.00 0.79 0.79 89 1003.4
20260904122658 28 124 6.4 12.9 0.00 0.79 0.79 90 1003.3
20260904122153 28 124 6.4 14.5 0.00 0.79 0.79 90 1003.2
20260904121648 28 199 8.0 12.9 0.00 0.79 0.79 90 1003.1
20260904121144 28 150 4.8 12.9 0.00 0.79 0.79 90 1003.3
20260904120640 28 153 8.0 11.3 0.00 0.79 0.79 89 1003.2
20260904120137 28 210 4.8 11.3 0.00 0.79 0.79 89 1003.4
20260904115637 28 125 4.8 14.5 0.00 0.79 0.79 89 1003.2
20260904115131 28 151 3.2 16.1 0.00 0.79 0.79 89 1003.2
20260904114626 28 189 6.4 17.7 0.00 0.79 0.79 89 1003.1
20260904114121 28 158 4.8 12.9 0.00 0.79 0.79 89 1003.1
20260904113620 28 173 1.6 9.7 0.00 0.79 0.79 89 1003.2
20260904113120 28 140 6.4 12.9 0.00 0.79 0.79 89 1002.8
20260904112616 28 189 4.8 12.9 0.00 0.79 0.79 89 1002.8
20260904112111 28 140 9.7 11.3 0.00 0.79 0.79 89 1002.9
20260904111606 28 158 4.8 14.5 0.00 0.79 0.79 89 1002.9
20260904111102 28 113 1.6 16.1 0.00 0.79 0.79 89 1003.0
20260904110556 28 109 1.6 12.9 0.00 0.79 0.79 89 1003.2
20260904110052 28 130 3.2 11.3 0.00 0.79 0.79 89 1003.1
20260904105551 28 101 3.2 11.3 0.00 0.79 0.79 89 1002.9
20260904105046 28 148 12.9 16.1 0.00 0.79 0.79 89 1002.9
20260904104542 28 207 9.7 14.5 0.00 0.79 0.79 88 1002.6
20260904104037 28 138 3.2 12.9 0.00 0.79 0.79 88 1002.7
20260904103533 28 106 0.0 9.7 0.00 0.79 0.79 88 1003.0
20260904103029 28 130 9.7 14.5 0.00 0.79 0.79 88 1002.9
20260904102525 28 151 3.2 6.4 0.00 0.79 0.79 88 1003.1
20260904102020 28 111 4.8 6.4 0.00 0.79 0.79 88 1002.9
20260904101517 28 151 1.6 11.3 0.00 0.79 0.79 88 1002.9
20260904101012 28 131 1.6 9.7 0.00 0.79 0.79 89 1003.0
20260904100507 28 143 3.2 11.3 0.00 0.79 0.79 89 1002.9
20260904100002 28 192 1.6 6.4 0.00 0.79 0.79 89 1003.1
20260904095456 28 146 3.2 9.7 0.00 0.79 0.79 89 1002.9
20260904094951 28 257 0.0 3.2 0.00 0.79 0.79 89 1002.6
20260904094446 28 35 1.6 6.4 0.00 0.79 0.79 89 1002.8
20260904093942 28 141 3.2 4.8 0.00 0.79 0.79 88 1002.8
20260904093438 28 173 3.2 11.3 0.00 0.79 0.79 88 1002.9
20260904092933 28 91 1.6 4.8 0.00 0.79 0.79 88 1002.8
20260904092429 28 118 1.6 3.2 0.00 0.79 0.79 88 1002.6
20260904091925 28 115 1.6 4.8 0.00 0.79 0.79 88 1002.8
20260904091420 28 143 3.2 6.4 0.00 0.79 0.79 88 1002.7
20260904090914 28 179 3.2 6.4 0.00 0.79 0.79 88 1002.9
20260904090411 28 257 1.6 3.2 0.00 0.79 0.79 88 1003.0
20260904085900 28 80 1.6 4.8 0.00 0.79 0.79 87 1002.9
20260904085355 28 226 3.2 6.4 0.00 0.79 0.79 87 1002.7
20260904084855 28 195 1.6 6.4 0.00 0.79 0.79 86 1002.6
20260904084351 29 174 3.2 3.2 0.00 0.79 0.79 86 1002.6
20260904083846 29 86 1.6 4.8 0.00 0.79 0.79 86 1002.5
20260904083343 29 62 3.2 11.3 0.00 0.79 0.79 85 1002.5
20260904082839 29 94 1.6 6.4 0.00 0.79 0.79 86 1002.6
20260904082333 29 179 3.2 6.4 0.00 0.79 0.79 85 1002.7
20260904081828 29 77 3.2 12.9 0.00 0.79 0.79 85 1002.6
20260904081324 29 80 3.2 4.8 0.00 0.79 0.79 85 1002.6
20260904080820 30 336 1.6 9.7 0.00 0.79 0.79 84 1002.7
20260904080315 30 148 3.2 4.8 0.00 0.79 0.79 84 1002.3
20260904075812 30 153 3.2 16.1 0.00 0.79 0.79 84 1002.6
20260904075312 30 158 3.2 6.4 0.00 0.79 0.79 84 1002.6
20260904074810 30 63 3.2 11.3 0.00 0.79 0.79 84 1002.6
20260904074306 30 267 6.4 14.5 0.00 0.79 0.79 82 1002.4
20260904073801 30 340 1.6 3.2 0.00 0.79 0.79 84 1002.3
20260904073257 30 102 1.6 4.8 0.00 0.79 0.79 85 1002.5
20260904072753 30 92 3.2 11.3 0.00 0.79 0.79 85 1002.5
20260904072252 30 336 3.2 4.8 0.00 0.79 0.79 86 1002.3
20260904071748 30 94 1.6 4.8 0.00 0.79 0.79 86 1002.5
20260904071243 30 160 8.0 11.3 0.00 0.79 0.79 85 1002.2
20260904070737 30 165 4.8 6.4 0.00 0.79 0.79 84 1002.7
20260904070236 30 82 1.6 6.4 0.00 0.79 0.79 84 1002.6
20260904065731 30 210 1.6 9.7 0.00 0.79 0.79 85 1002.5
20260904065228 30 344 6.4 14.5 0.00 0.79 0.79 84 1002.6
20260904064728 30 127 8.0 12.9 0.00 0.79 0.79 85 1002.9
20260904064223 30 111 3.2 16.1 0.00 0.79 0.79 86 1002.7
20260904063719 30 134 14.5 20.9 0.00 0.79 0.79 85 1002.7
20260904063215 30 121 9.7 17.7 0.00 0.79 0.79 85 1002.9
20260904062711 30 172 9.7 20.9 0.00 0.79 0.79 85 1002.9
20260904062206 30 314 4.8 12.9 0.00 0.79 0.79 86 1003.0
20260904061702 30 46 8.0 14.5 0.00 0.79 0.79 86 1003.1
20260904061158 29 250 4.8 11.3 0.00 0.79 0.79 87 1002.9
20260904060654 29 156 4.8 9.7 0.00 0.79 0.79 88 1002.9
20260904060150 28 76 6.4 16.1 0.00 0.79 0.79 87 1002.8
20260904055650 28 125 4.8 14.5 0.00 0.79 0.79 87 1002.9
20260904055145 28 139 3.2 17.7 0.00 0.79 0.79 88 1002.8
20260904054636 28 102 6.4 16.1 0.00 0.79 0.79 89 1002.8
20260904054132 28 106 3.2 9.7 0.00 0.79 0.79 91 1002.9
20260904053632 28 117 4.8 9.7 0.00 0.79 0.79 90 1003.0
20260904053126 28 181 1.6 1.6 0.00 0.79 0.79 92 1002.9
20260904052623 28 149 3.2 4.8 0.00 0.79 0.79 92 1002.9
20260904052119 28 121 1.6 3.2 0.00 0.79 0.79 92 1003.0
20260904051615 27 123 0.0 3.2 0.00 0.79 0.79 92 1003.1
20260904051114 27 169 0.0 1.6 2.29 0.79 0.79 91 1003.3
20260904050610 27 115 3.2 4.8 2.87 0.76 0.76 90 1003.2
20260904050107 28 83 6.4 9.7 0.71 0.41 0.41 86 1003.2
20260904045601 29 1 8.0 9.7 0.00 0.28 0.28 85 1003.2
20260904045056 30 97 1.6 4.8 0.00 0.28 0.28 83 1003.0
20260904044551 30 17 3.2 9.7 0.00 0.28 0.28 83 1003.0
20260904044048 30 133 12.9 16.1 0.00 0.28 0.28 82 1003.1
20260904043544 30 88 4.8 11.3 0.00 0.28 0.28 83 1003.4
20260904043039 30 119 11.3 12.9 0.00 0.28 0.28 83 1003.3
20260904042536 30 88 9.7 16.1 0.00 0.28 0.28 84 1003.5
20260904042031 30 149 6.4 16.1 0.00 0.28 0.28 84 1003.7
20260904041526 30 177 4.8 9.7 0.00 0.28 0.28 84 1003.6
20260904041022 30 139 3.2 16.1 0.00 0.28 0.28 84 1003.6
20260904040522 30 160 6.4 12.9 0.00 0.28 0.28 83 1003.4
20260904040020 30 102 8.0 16.1 0.00 0.28 0.28 85 1003.5
20260904035519 30 94 3.2 9.7 0.00 0.28 0.28 85 1003.4
20260904035019 30 65 6.4 11.3 0.00 0.28 0.28 85 1003.6
20260904034514 30 109 1.6 12.9 0.00 0.28 0.28 86 1003.5
20260904034009 30 188 3.2 12.9 0.00 0.28 0.28 86 1003.8
20260904033505 30 151 4.8 14.5 0.00 0.28 0.28 86 1003.8
20260904033002 30 131 6.4 16.1 0.00 0.28 0.28 86 1003.7
20260904032457 30 139 6.4 14.5 0.00 0.28 0.28 87 1003.8
20260904031955 30 130 3.2 11.3 0.00 0.28 0.28 87 1003.8
20260904031451 29 120 6.4 11.3 0.00 0.28 0.28 88 1003.9
20260904030947 30 127 4.8 11.3 0.00 0.28 0.28 88 1004.0
20260904030443 30 148 3.2 11.3 0.00 0.28 0.28 88 1004.1
20260904025937 29 153 3.2 12.9 0.00 0.28 0.28 89 1004.2
20260904025434 29 126 3.2 4.8 0.30 0.28 0.28 90 1004.2
20260904024928 29 89 3.2 4.8 0.30 0.28 0.28 89 1004.1
20260904024424 29 82 0.0 6.4 0.00 0.23 0.23 88 1004.1
20260904023919 29 130 3.2 12.9 0.00 0.23 0.23 89 1004.1
20260904023416 29 184 4.8 14.5 0.18 0.23 0.23 88 1004.1
20260904022915 30 88 11.3 16.1 0.18 0.23 0.23 87 1004.2
20260904022412 30 112 3.2 11.3 0.00 0.20 0.20 85 1004.1
20260904021908 30 79 4.8 12.9 0.00 0.20 0.20 84 1004.2
20260904021403 30 148 11.3 14.5 0.00 0.20 0.20 83 1004.0
20260904020858 30 230 3.2 6.4 0.00 0.20 0.20 83 1004.0
20260904020353 30 175 4.8 6.4 0.00 0.20 0.20 83 1003.9
20260904015852 30 135 1.6 14.5 0.00 0.20 0.20 83 1004.1
20260904015347 30 151 9.7 17.7 0.00 0.20 0.20 84 1004.0